TimeCST,TemperatureF,Dew PointF,Humidity,Sea Level PressureIn,VisibilityMPH,Wind Direction,Wind SpeedMPH,Gust SpeedMPH,PrecipitationIn,Events,Conditions,WindDirDegrees,DateUTC
12:35 AM,30.2,26.6,86,29.76,6.0,Calm,Calm,-,N/A,,Overcast,0,2012-12-18 06:35:00
12:54 AM,30.9,27.0,85,29.78,6.0,Calm,Calm,-,N/A,,Overcast,0,2012-12-18 06:54:00
1:27 AM,30.2,26.6,86,29.75,6.0,SSE,3.5,-,N/A,,Overcast,160,2012-12-18 07:27:00
1:54 AM,30.0,27.0,88,29.78,6.0,Calm,Calm,-,N/A,,Overcast,0,2012-12-18 07:54:00
2:19 AM,30.2,28.4,93,29.76,6.0,Calm,Calm,-,N/A,,Overcast,0,2012-12-18 08:19:00
2:54 AM,30.9,28.0,89,29.78,5.0,Calm,Calm,-,N/A,,Overcast,0,2012-12-18 08:54:00
3:54 AM,30.9,27.0,85,29.76,8.0,SW,5.8,-,N/A,,Overcast,220,2012-12-18 09:54:00
4:54 AM,30.9,26.1,82,29.76,8.0,South,6.9,-,N/A,,Overcast,190,2012-12-18 10:54:00
5:54 AM,30.2,26.6,86,29.75,7.0,SSW,5.8,-,N/A,,Overcast,200,2012-12-18 11:54:00
6:54 AM,30.0,27.0,88,29.76,6.0,SE,4.6,-,N/A,,Overcast,140,2012-12-18 12:54:00
7:12 AM,30.2,26.6,86,29.74,6.0,South,4.6,-,N/A,,Overcast,170,2012-12-18 13:12:00
7:22 AM,30.2,26.6,86,29.74,6.0,SSE,6.9,-,N/A,,Overcast,150,2012-12-18 13:22:00
7:54 AM,30.9,27.0,85,29.77,6.0,SSE,8.1,-,N/A,,Overcast,160,2012-12-18 13:54:00
8:12 AM,30.2,26.6,86,29.74,6.0,SE,6.9,-,N/A,,Overcast,140,2012-12-18 14:12:00
8:54 AM,32.0,28.0,85,29.75,5.0,SSE,10.4,-,0.00,Snow,Light Snow,150,2012-12-18 14:54:00
9:54 AM,33.1,28.9,85,29.74,5.0,SSE,11.5,-,0.00,Snow,Light Snow,150,2012-12-18 15:54:00
10:15 AM,33.8,28.4,81,29.72,5.0,SE,10.4,-,0.00,,Overcast,140,2012-12-18 16:15:00
10:54 AM,33.1,28.9,85,29.70,5.0,SE,11.5,-,0.00,Snow,Light Snow,130,2012-12-18 16:54:00
11:54 AM,34.0,30.0,85,29.65,5.0,SE,15.0,20.7,0.00,,Overcast,130,2012-12-18 17:54:00
12:54 PM,36.0,30.9,82,29.62,5.0,SE,9.2,-,N/A,,Haze,140,2012-12-18 18:54:00
1:54 PM,37.0,33.1,86,29.61,4.0,SE,9.2,-,N/A,,Overcast,140,2012-12-18 19:54:00
2:36 PM,37.4,33.8,87,29.57,5.0,SE,13.8,-,N/A,,Overcast,130,2012-12-18 20:36:00
2:54 PM,37.9,34.0,86,29.60,4.0,ESE,10.4,-,N/A,,Overcast,120,2012-12-18 20:54:00
3:54 PM,37.9,35.1,89,29.61,5.0,Calm,Calm,-,0.00,,Light Drizzle,0,2012-12-18 21:54:00
4:54 PM,37.9,35.1,89,29.63,6.0,Calm,Calm,-,0.00,,Overcast,0,2012-12-18 22:54:00
5:26 PM,37.4,35.6,93,29.63,5.0,NE,4.6,-,N/A,,Overcast,50,2012-12-18 23:26:00
5:34 PM,37.4,35.6,93,29.63,5.0,NNE,4.6,-,N/A,,Overcast,30,2012-12-18 23:34:00
5:54 PM,37.9,35.1,89,29.66,5.0,NE,3.5,-,N/A,,Overcast,40,2012-12-18 23:54:00
6:27 PM,37.4,35.6,93,29.65,4.0,Calm,Calm,-,N/A,,Overcast,0,2012-12-19 00:27:00
6:54 PM,37.0,36.0,96,29.69,4.0,NW,3.5,-,0.00,,Light Drizzle,320,2012-12-19 00:54:00
7:24 PM,35.6,33.8,93,29.69,4.0,North,9.2,-,0.00,,Light Drizzle,350,2012-12-19 01:24:00
7:54 PM,35.1,33.1,92,29.73,4.0,NNW,9.2,-,0.00,,Overcast,330,2012-12-19 01:54:00
8:54 PM,34.0,32.0,92,29.78,5.0,NNW,12.7,-,N/A,,Overcast,330,2012-12-19 02:54:00
9:54 PM,33.1,30.9,92,29.81,5.0,NNW,9.2,-,N/A,,Overcast,340,2012-12-19 03:54:00
10:54 PM,32.0,30.0,92,29.86,5.0,NNW,11.5,-,N/A,,Overcast,330,2012-12-19 04:54:00
11:54 PM,32.0,30.0,92,29.90,5.0,NW,9.2,-,N/A,,Overcast,310,2012-12-19 05:54:00